Stündliche Wetter Cayo Coco

Heute, 20 Oktober, Dienstag

Zeit Temperatur Niederschläge Wind Luftdruck Luftfeuchtigkeit
00:00 +28°C° 0.4 mm 8 m/S 758 mmHg 79%
01:00 +28°C° 0 mm 8 m/S 757 mmHg 80%
02:00 +28°C° 0.1 mm 8 m/S 757 mmHg 82%
03:00 +28°C° 0.1 mm 7 m/S 757 mmHg 84%
04:00 +28°C° 0.1 mm 7 m/S 756 mmHg 86%
05:00 +28°C° 0.3 mm 7 m/S 757 mmHg 85%
06:00 +28°C° 0.3 mm 7 m/S 757 mmHg 84%
07:00 +28°C° 0.3 mm 7 m/S 758 mmHg 83%
08:00 +29°C° 0.5 mm 7 m/S 758 mmHg 81%
09:00 +29°C° 0.5 mm 7 m/S 758 mmHg 80%
10:00 +30°C° 0.5 mm 7 m/S 758 mmHg 78%
11:00 +30°C° 0.6 mm 6 m/S 758 mmHg 78%
12:00 +30°C° 0.6 mm 6 m/S 758 mmHg 77%
13:00 +30°C° 0.6 mm 6 m/S 757 mmHg 77%
14:00 +30°C° 1 mm 6 m/S 757 mmHg 80%
15:00 +29°C° 1 mm 6 m/S 756 mmHg 83%
16:00 +28°C° 1 mm 5 m/S 756 mmHg 86%
17:00 +28°C° 1.1 mm 6 m/S 756 mmHg 86%
18:00 +28°C° 1.1 mm 6 m/S 757 mmHg 86%
19:00 +28°C° 1.1 mm 6 m/S 757 mmHg 86%
20:00 +28°C° 0.2 mm 7 m/S 757 mmHg 86%
21:00 +28°C° 0.2 mm 7 m/S 758 mmHg 86%
22:00 +28°C° 0.2 mm 7 m/S 758 mmHg 86%
23:00 +28°C° 0.8 mm 7 m/S 758 mmHg 86%

Morgen, 21 Oktober, Mittwoch

Zeit Temperatur Niederschläge Wind Luftdruck Luftfeuchtigkeit
00:00 +28°C° 0.8 mm 6 m/S 758 mmHg 87%
01:00 +27°C° 0.8 mm 6 m/S 757 mmHg 88%
02:00 +27°C° 1.5 mm 6 m/S 757 mmHg 89%
03:00 +27°C° 1.5 mm 6 m/S 757 mmHg 89%
04:00 +27°C° 1.5 mm 6 m/S 757 mmHg 89%
05:00 +27°C° 1.2 mm 6 m/S 757 mmHg 89%
06:00 +27°C° 1.2 mm 6 m/S 758 mmHg 89%
07:00 +28°C° 1.2 mm 6 m/S 758 mmHg 89%
08:00 +29°C° 1.3 mm 6 m/S 758 mmHg 85%
09:00 +30°C° 1.3 mm 7 m/S 759 mmHg 81%
10:00 +32°C° 1.3 mm 7 m/S 759 mmHg 77%
11:00 +32°C° 0.8 mm 7 m/S 758 mmHg 75%
12:00 +32°C° 0.8 mm 7 m/S 758 mmHg 73%
13:00 +33°C° 0.8 mm 7 m/S 758 mmHg 71%
14:00 +32°C° 0.8 mm 7 m/S 758 mmHg 74%
15:00 +30°C° 0.8 mm 7 m/S 757 mmHg 77%
16:00 +30°C° 0.8 mm 7 m/S 757 mmHg 81%
17:00 +29°C° 1.2 mm 7 m/S 757 mmHg 83%
18:00 +29°C° 1.2 mm 7 m/S 758 mmHg 85%
19:00 +28°C° 1.2 mm 8 m/S 758 mmHg 87%
20:00 +28°C° 1.3 mm 8 m/S 758 mmHg 87%
21:00 +28°C° 1.3 mm 7 m/S 759 mmHg 88%
22:00 +28°C° 1.3 mm 7 m/S 759 mmHg 88%
23:00 +28°C° 1.3 mm 7 m/S 759 mmHg 88%

übermorgen, 22 Oktober, Donnerstag

Zeit Temperatur Niederschläge Wind Luftdruck Luftfeuchtigkeit
00:00 +28°C° 1.3 mm 6 m/S 758 mmHg 88%
01:00 +28°C° 1.3 mm 6 m/S 758 mmHg 88%
02:00 +27°C° 0.1 mm 6 m/S 758 mmHg 88%
03:00 +27°C° 0.1 mm 6 m/S 758 mmHg 89%
04:00 +27°C° 0.1 mm 6 m/S 758 mmHg 90%
05:00 +27°C° 0.3 mm 6 m/S 758 mmHg 89%
06:00 +27°C° 0.3 mm 6 m/S 758 mmHg 89%
07:00 +28°C° 0.3 mm 6 m/S 758 mmHg 89%
08:00 +28°C° 0.2 mm 7 m/S 759 mmHg 86%
09:00 +29°C° 0.2 mm 7 m/S 759 mmHg 82%
10:00 +30°C° 0.2 mm 7 m/S 759 mmHg 79%
11:00 +32°C° 0.1 mm 7 m/S 759 mmHg 76%
12:00 +32°C° 0.1 mm 8 m/S 758 mmHg 73%
13:00 +33°C° 0.1 mm 8 m/S 758 mmHg 70%
14:00 +32°C° 0.1 mm 8 m/S 758 mmHg 72%
15:00 +32°C° 0.1 mm 8 m/S 758 mmHg 73%
16:00 +32°C° 0.1 mm 8 m/S 758 mmHg 74%
17:00 +31°C° 0 mm 8 m/S 758 mmHg 76%
18:00 +29°C° 0 mm 8 m/S 758 mmHg 78%
19:00 +29°C° 0 mm 8 m/S 759 mmHg 81%
20:00 +29°C° 0 mm 8 m/S 759 mmHg 80%
21:00 +29°C° 0 mm 8 m/S 759 mmHg 80%
22:00 +28°C° 0 mm 8 m/S 760 mmHg 80%
23:00 +28°C° 0 mm 8 m/S 759 mmHg 81%

23 Oktober, Freitag

Zeit Temperatur Niederschläge Wind Luftdruck Luftfeuchtigkeit
00:00 +28°C° 0 mm 8 m/S 759 mmHg 81%
01:00 +28°C° 0 mm 7 m/S 759 mmHg 82%
02:00 +28°C° 0.2 mm 7 m/S 759 mmHg 83%
03:00 +28°C° 0.2 mm 7 m/S 759 mmHg 84%
04:00 +28°C° 0.2 mm 7 m/S 758 mmHg 85%
05:00 +28°C° 0.3 mm 7 m/S 759 mmHg 85%
06:00 +28°C° 0.3 mm 7 m/S 759 mmHg 84%
07:00 +28°C° 0.3 mm 7 m/S 759 mmHg 84%
08:00 +29°C° 1.1 mm 7 m/S 759 mmHg 81%
09:00 +30°C° 1.1 mm 7 m/S 760 mmHg 78%
10:00 +30°C° 1.1 mm 7 m/S 760 mmHg 75%
11:00 +30°C° 1 mm 7 m/S 759 mmHg 76%
12:00 +30°C° 1 mm 7 m/S 759 mmHg 78%
13:00 +30°C° 1 mm 7 m/S 758 mmHg 79%
14:00 +30°C° 0.4 mm 7 m/S 758 mmHg 79%
15:00 +31°C° 0.4 mm 8 m/S 758 mmHg 78%
16:00 +31°C° 0.4 mm 8 m/S 758 mmHg 78%
17:00 +29°C° 1.2 mm 8 m/S 758 mmHg 80%
18:00 +29°C° 1.2 mm 9 m/S 758 mmHg 82%
19:00 +28°C° 1.2 mm 9 m/S 759 mmHg 85%
20:00 +28°C° 1.8 mm 8 m/S 759 mmHg 86%
21:00 +27°C° 1.8 mm 8 m/S 759 mmHg 87%
22:00 +27°C° 1.8 mm 8 m/S 759 mmHg 88%
23:00 +27°C° 2.1 mm 7 m/S 759 mmHg 89%

24 Oktober, Samstag

Zeit Temperatur Niederschläge Wind Luftdruck Luftfeuchtigkeit
00:00 +26°C° 2.1 mm 6 m/S 759 mmHg 90%
01:00 +26°C° 2.1 mm 6 m/S 758 mmHg 91%
02:00 +26°C° 1.9 mm 5 m/S 758 mmHg 91%
03:00 +26°C° 1.9 mm 5 m/S 758 mmHg 91%
04:00 +26°C° 1.9 mm 5 m/S 758 mmHg 91%
05:00 +26°C° 1.4 mm 5 m/S 758 mmHg 91%
06:00 +26°C° 1.4 mm 4 m/S 758 mmHg 90%
07:00 +26°C° 1.4 mm 4 m/S 759 mmHg 90%
08:00 +27°C° 0.6 mm 4 m/S 759 mmHg 84%
09:00 +29°C° 0.6 mm 3 m/S 759 mmHg 78%
10:00 +30°C° 0.6 mm 3 m/S 760 mmHg 72%
11:00 +30°C° 0.6 mm 3 m/S 759 mmHg 73%
12:00 +31°C° 0.6 mm 3 m/S 758 mmHg 73%
13:00 +31°C° 0.6 mm 3 m/S 758 mmHg 74%
14:00 +30°C° 1.4 mm 3 m/S 758 mmHg 76%
15:00 +30°C° 1.4 mm 2 m/S 757 mmHg 78%
16:00 +30°C° 1.4 mm 2 m/S 757 mmHg 80%
17:00 +29°C° 1.1 mm 2 m/S 757 mmHg 82%
18:00 +28°C° 1.1 mm 2 m/S 758 mmHg 83%
19:00 +28°C° 1.1 mm 2 m/S 758 mmHg 85%
20:00 +27°C° 0.3 mm 2 m/S 758 mmHg 85%
21:00 +27°C° 0.3 mm 2 m/S 759 mmHg 85%
22:00 +27°C° 0.3 mm 1 m/S 759 mmHg 85%
23:00 +27°C° 0.2 mm 2 m/S 759 mmHg 87%

25 Oktober, Sonntag

Zeit Temperatur Niederschläge Wind Luftdruck Luftfeuchtigkeit
00:00 +26°C° 0.2 mm 2 m/S 758 mmHg 88%
01:00 +26°C° 0.2 mm 3 m/S 758 mmHg 90%
02:00 +26°C° 0.1 mm 3 m/S 758 mmHg 89%
03:00 +26°C° 0.1 mm 2 m/S 758 mmHg 88%
04:00 +26°C° 0.1 mm 2 m/S 758 mmHg 87%
05:00 +27°C° 0 mm 2 m/S 758 mmHg 87%
06:00 +27°C° 0 mm 2 m/S 759 mmHg 86%
07:00 +27°C° 0 mm 3 m/S 759 mmHg 86%
08:00 +28°C° 0.4 mm 3 m/S 759 mmHg 84%
09:00 +29°C° 0.4 mm 4 m/S 760 mmHg 82%
10:00 +30°C° 0.4 mm 4 m/S 760 mmHg 80%
11:00 +30°C° 0.2 mm 4 m/S 759 mmHg 79%
12:00 +30°C° 0.2 mm 4 m/S 759 mmHg 77%
13:00 +30°C° 0.2 mm 4 m/S 759 mmHg 76%
14:00 +30°C° 0.4 mm 4 m/S 758 mmHg 79%
15:00 +30°C° 0.4 mm 4 m/S 758 mmHg 81%
16:00 +29°C° 0.4 mm 5 m/S 758 mmHg 83%
17:00 +29°C° 1.3 mm 4 m/S 758 mmHg 84%
18:00 +28°C° 1.3 mm 3 m/S 759 mmHg 84%
19:00 +27°C° 1.3 mm 3 m/S 759 mmHg 84%
20:00 +27°C° 0.6 mm 3 m/S 760 mmHg 83%
21:00 +27°C° 0.6 mm 2 m/S 760 mmHg 83%
22:00 +27°C° 0.6 mm 2 m/S 760 mmHg 82%
23:00 +27°C° 0 mm 2 m/S 760 mmHg 83%

26 Oktober, Montag

Zeit Temperatur Niederschläge Wind Luftdruck Luftfeuchtigkeit
00:00 +27°C° 0 mm 2 m/S 760 mmHg 83%
01:00 +27°C° 0 mm 2 m/S 759 mmHg 83%
02:00 +27°C° 0 mm 3 m/S 759 mmHg 84%
03:00 +27°C° 0 mm 4 m/S 759 mmHg 86%
04:00 +27°C° 0 mm 4 m/S 759 mmHg 87%
05:00 +27°C° 0.1 mm 5 m/S 759 mmHg 87%
06:00 +28°C° 0.1 mm 5 m/S 760 mmHg 87%
07:00 +28°C° 0.1 mm 5 m/S 760 mmHg 86%
08:00 +29°C° 0 mm 6 m/S 760 mmHg 81%
09:00 +30°C° 0 mm 6 m/S 760 mmHg 76%
10:00 +32°C° 0 mm 6 m/S 761 mmHg 70%
11:00 +33°C° 0 mm 6 m/S 760 mmHg 69%
12:00 +33°C° 0 mm 6 m/S 760 mmHg 67%
13:00 +33°C° 0 mm 6 m/S 759 mmHg 65%
14:00 +33°C° 0 mm 6 m/S 759 mmHg 68%
15:00 +32°C° 0 mm 6 m/S 759 mmHg 71%
16:00 +32°C° 0 mm 6 m/S 759 mmHg 74%
17:00 +30°C° 0.1 mm 6 m/S 759 mmHg 78%
18:00 +29°C° 0.1 mm 6 m/S 759 mmHg 82%
19:00 +29°C° 0.1 mm 6 m/S 760 mmHg 86%
20:00 +29°C° 0.1 mm 6 m/S 760 mmHg 86%
21:00 +28°C° 0.1 mm 6 m/S 760 mmHg 87%
22:00 +28°C° 0.1 mm 7 m/S 760 mmHg 87%
23:00 +28°C° 0.1 mm 7 m/S 760 mmHg 88%
Mehr zeigen